[[{"header":{"parameterUnit":"m.s-1","parameterCategory":1,"la1":30.2991,"la2":30.254,"lo1":-89.0895,"lo2":-89.0444,"dy":0.0017,"dx":0.0017,"nx":28,"ny":28,"refTime":"2024-10-13T21:00:00:Z","depth":0,"parameterNumber":2,"parameterNumberName":"U-component_of_WINDS"},"data":[0,0,0,0,0,0,0,0,0,0,0,0,0,0,0,0,0,0,0,0,0,0,0,0,0,0,0,0,0,0,0,0,0,0,0,0,0,0,0,0,0,0,0,0,0,0,0,0,0,0,0,0,0,0,0,0,0,0,4.9002,4.9004,0,4.9202,4.9205,4.9207,4.9164,4.916,4.9157,4.9153,4.9362,4.9371,4.9379,0,0,0,0,0,0,0,0,0,0,0,0,0,4.8584,4.8592,4.9002,4.9004,4.9007,4.9202,4.9205,4.9208,4.9165,4.916,4.9156,4.9151,4.9359,4.9369,4.938,0,0,0,0,0,0,0,0,0,0,0,0,0,4.8773,4.8595,4.9001,4.9009,4.9012,4.9202,4.9205,4.9208,4.9166,4.916,4.9154,4.9149,4.9355,4.9368,4.9382,4.9578,0,0,4.9423,4.9429,0,0,0,0,0,0,0,0,4.8763,4.8789,4.9005,4.9009,4.9012,4.9152,4.9134,4.9332,4.9167,4.9107,4.9153,4.9147,4.9297,4.9315,4.9365,4.9587,4.9596,4.9424,4.9433,4.9438,4.9442,0,0,0,0,0,0,0,4.875,4.878,4.9081,4.9008,4.9013,4.9003,4.9024,4.9171,4.9231,4.9112,4.9109,4.9134,4.9298,4.9352,4.9369,4.9599,4.9424,4.9436,4.9444,4.945,4.9992,4.9998,0,0,0,0,0,0,4.8733,4.8769,4.9075,4.9087,4.8871,4.9015,4.9038,4.9113,4.9229,4.9242,4.9138,4.9131,4.9332,4.9354,4.9377,4.9613,4.9438,4.9451,4.9459,4.9986,4.9994,5.0001,0,0,0,0,0,0,4.8724,4.8761,4.9067,4.8928,4.8966,4.9028,4.9113,4.912,4.9174,4.9249,4.926,4.9183,4.9328,4.9358,4.9528,4.962,4.9457,4.9469,4.9979,4.9988,4.9997,5.0088,0,0,0,0,0,0,4.8712,4.8758,4.8832,4.893,4.8973,4.9214,4.9118,4.9128,4.9197,4.919,4.9294,4.9305,4.9326,4.9508,4.9541,4.9636,4.948,4.9971,4.9983,4.9994,5.0077,5.01,5.0119,0,0,0,0,0,4.8698,4.8851,4.8836,4.8874,4.9068,4.9219,4.9245,4.9264,4.9205,4.9281,4.9329,4.9302,4.9604,4.9525,4.9563,4.9663,4.9965,4.998,4.9993,5.0068,5.0095,5.0118,0,0,0,0,0,0,4.8764,4.8864,4.8849,4.9038,4.912,4.9212,4.9308,4.9292,4.9394,4.9383,4.9404,4.9428,4.9601,4.9649,4.9559,4.9858,4.9776,4.9799,4.9821,4.9847,4.9867,4.9852,4.9491,0,0,0,0,0,4.8801,4.8915,4.8996,4.9155,4.9197,4.9246,4.9312,4.932,4.9407,4.9442,4.9502,4.9588,4.9702,4.9777,4.9887,5.0084,5.0106,5.0171,5.0192,5.0209,5.0228,5.0335,5.0365,5.0047,5.0047,5.0047,0,0,4.8878,4.8946,4.9017,4.917,4.9235,4.9353,4.9275,4.9404,4.9492,4.9462,4.9625,4.9673,4.977,4.9955,5.0039,5.0,5.032,5.0227,5.0239,5.025,5.0353,5.0383,5.041,5.0057,5.0055,5.0053,0,0,4.9079,4.9142,4.9281,4.9347,4.9446,4.9477,4.951,4.9604,4.9634,4.9799,4.9778,4.9884,5.008,5.015,5.0211,5.0438,5.0417,5.0473,5.0581,5.0686,5.0711,5.0733,5.0814,5.0843,5.0492,5.0492,5.0492,0,4.9162,4.9338,4.9355,4.9485,4.9553,4.953,4.9671,4.9735,4.9865,4.9912,4.9866,5.0112,5.0176,5.0376,5.0431,5.0482,5.0521,5.0461,5.0706,5.0729,5.075,5.0827,5.0857,5.0498,5.0497,5.0497,5.0496,0,4.9436,4.9559,4.966,4.9784,4.9863,4.9999,5.0036,5.0114,5.0115,5.0151,5.0319,5.0395,5.0519,5.0567,5.0569,5.0768,5.0741,5.0701,5.0619,5.0786,5.0859,5.0888,5.0507,5.0505,5.0503,5.0501,0,0,4.9685,4.9816,4.9853,4.9909,5.0015,5.0111,5.0245,5.0365,5.0432,5.0522,5.0636,5.0802,5.0765,5.0835,5.0845,5.0937,5.1111,5.0886,5.0888,5.0925,5.1334,5.1364,5.1397,5.1098,5.1103,5.1108,5.1326,0,4.9896,5.0131,5.0149,5.0362,5.0475,5.0454,5.0571,5.065,5.0687,5.0789,5.0831,5.0948,5.0891,5.0933,5.1023,5.1071,5.1194,5.1055,5.1204,5.1209,5.118,5.1436,5.1467,5.1669,5.1354,5.1359,5.1363,0,5.0173,5.0269,5.0493,5.0583,5.0631,5.0736,5.0847,5.0945,5.1034,5.1054,5.1132,5.1129,5.1267,5.118,5.1372,5.1277,5.1339,5.1372,5.138,5.1395,5.1296,5.1457,5.1734,5.1765,5.1408,5.1404,5.1401,0,5.0331,5.0518,5.0676,5.0724,5.0833,5.0907,5.0956,5.1039,5.111,5.1208,5.1254,5.1367,5.1429,5.1516,5.1544,5.1478,5.1735,5.165,5.1756,5.1756,5.1812,5.1808,5.2102,5.1852,5.1851,5.1851,5.185,0,5.0564,5.0702,5.0748,5.0846,5.0999,5.1019,5.1171,5.1215,5.1289,5.1395,5.1384,5.1484,5.1515,5.1621,5.1644,5.1799,5.1827,5.1848,5.1852,5.1849,5.1846,5.189,5.1876,5.1859,5.1857,5.1855,5.1854,0,5.0768,5.0805,5.0975,5.1064,5.1089,5.1199,5.1275,5.1369,5.1403,5.1538,5.157,5.1626,5.1749,5.1786,5.1935,5.195,5.2132,5.2123,5.2101,5.2102,5.2206,5.2195,5.2539,5.2585,5.2304,5.2307,5.2309,0,5.0915,5.102,5.1119,5.1188,5.124,5.1353,5.1424,5.1448,5.1523,5.1631,5.1712,5.1834,5.1932,5.213,5.2185,5.2298,5.2293,5.2405,5.231,5.2303,5.2295,5.2288,5.2298,5.2423,5.2426,5.2429,5.2431,0,5.117,5.1183,5.1286,5.1396,5.1481,5.1569,5.1654,5.1711,5.1747,5.1832,5.1958,5.2034,5.2185,5.2306,5.2421,5.2472,5.2459,5.246,5.2491,5.2489,5.2471,5.2482,5.215,5.2452,5.245,5.2449,5.2447,5.2447,5.135,5.1442,5.1526,5.1641,5.1707,5.1786,5.1878,5.1924,5.2028,5.2152,5.216,5.2296,5.2381,5.2534,5.2592,5.2699,5.2666,5.271,5.2722,5.2732,5.2741,5.2454,5.272,5.2719,5.2719,5.2718,5.2718,0,5.1605,5.1657,5.1763,5.1881,5.1972,5.1949,5.2041,5.2118,5.2238,5.2318,5.2415,5.2559,5.2676,5.2738,5.2855,5.2929,5.2925,5.2959,5.2954,5.2966,5.2763,5.2725,5.296,5.296,5.296,5.2959,5.2959,5.2959,5.1748,5.1903,5.1925,5.2112,5.2164,5.2296,5.235,5.2423,5.2487,5.2648,5.2745,5.2784,5.2858,5.298,5.3086,5.3102,5.3145,5.3183,5.3195,5.3005,5.298,5.2956,5.292,5.3192,5.3192,5.3388,5.339,5.3391]},{"header":{"parameterUnit":"m.s-1","parameterCategory":1,"la1":30.2991,"la2":30.254,"lo1":-89.0895,"lo2":-89.0444,"dy":0.0017,"dx":0.0017,"nx":28,"ny":28,"refTime":"2024-10-13T21:00:00:Z","depth":0,"parameterNumber":3,"parameterNumberName":"V-component_of_WINDS"},"data":[0,0,0,0,0,0,0,0,0,0,0,0,0,0,0,0,0,0,0,0,0,0,0,0,0,0,0,0,0,0,0,0,0,0,0,0,0,0,0,0,0,0,0,0,0,0,0,0,0,0,0,0,0,0,0,0,0,0,-0.1889,-0.189,0,-0.195,-0.195,-0.1951,-0.1973,-0.1973,-0.1973,-0.1972,-0.2035,-0.2037,-0.2039,0,0,0,0,0,0,0,0,0,0,0,0,0,-0.1794,-0.1796,-0.1889,-0.189,-0.1891,-0.195,-0.195,-0.1951,-0.1973,-0.1973,-0.1973,-0.1972,-0.2035,-0.2037,-0.2039,0,0,0,0,0,0,0,0,0,0,0,0,0,-0.1843,-0.1796,-0.1889,-0.1909,-0.1911,-0.1949,-0.195,-0.1951,-0.1973,-0.1973,-0.1972,-0.1972,-0.2034,-0.2037,-0.2039,-0.2063,0,0,-0.2048,-0.2049,0,0,0,0,0,0,0,0,-0.184,-0.1846,-0.1905,-0.1907,-0.191,-0.1953,-0.194,-0.1989,-0.1973,-0.195,-0.1972,-0.1972,-0.2008,-0.2013,-0.2025,-0.2066,-0.2069,-0.2048,-0.205,-0.2051,-0.2052,0,0,0,0,0,0,0,-0.1837,-0.1844,-0.1913,-0.1906,-0.1909,-0.1915,-0.1922,-0.1949,-0.198,-0.1952,-0.1953,-0.196,-0.201,-0.2023,-0.2027,-0.207,-0.2048,-0.2051,-0.2052,-0.2054,-0.2134,-0.2135,0,0,0,0,0,0,-0.183,-0.1841,-0.1911,-0.1915,-0.1874,-0.1917,-0.1924,-0.194,-0.198,-0.1986,-0.196,-0.1961,-0.2018,-0.2024,-0.2029,-0.206,-0.2051,-0.2054,-0.2055,-0.2134,-0.2134,-0.2135,0,0,0,0,0,0,-0.1828,-0.1836,-0.1909,-0.1878,-0.1888,-0.1919,-0.1936,-0.1941,-0.1954,-0.1986,-0.1992,-0.1968,-0.2018,-0.2025,-0.2055,-0.2063,-0.2055,-0.2058,-0.2133,-0.2134,-0.2135,-0.2122,0,0,0,0,0,0,-0.1825,-0.1835,-0.1844,-0.1878,-0.189,-0.1932,-0.1937,-0.1943,-0.1959,-0.196,-0.1995,-0.2,-0.2018,-0.205,-0.2058,-0.2067,-0.206,-0.2133,-0.2134,-0.2134,-0.2122,-0.2122,-0.2122,0,0,0,0,0,-0.1822,-0.1838,-0.1844,-0.1852,-0.1901,-0.1933,-0.1939,-0.1959,-0.1959,-0.1969,-0.199,-0.1999,-0.2061,-0.2053,-0.2061,-0.2071,-0.2132,-0.2133,-0.2134,-0.2122,-0.2122,-0.2122,0,0,0,0,0,0,-0.1803,-0.1843,-0.185,-0.1878,-0.1902,-0.1936,-0.1949,-0.1959,-0.1984,-0.1984,-0.2008,-0.2016,-0.2044,-0.2061,-0.2051,-0.2097,-0.2097,-0.21,-0.2085,-0.2085,-0.2086,-0.2081,-0.2062,0,0,0,0,0,-0.1803,-0.1824,-0.1858,-0.1879,-0.1891,-0.1918,-0.1932,-0.1946,-0.1972,-0.1982,-0.2005,-0.203,-0.2056,-0.2071,-0.2096,-0.2125,-0.2133,-0.2136,-0.2136,-0.2136,-0.2138,-0.2155,-0.2157,-0.2138,-0.2138,-0.2138,0,0,-0.1801,-0.1825,-0.1838,-0.1876,-0.1896,-0.1919,-0.1926,-0.195,-0.1967,-0.1986,-0.2015,-0.2033,-0.2063,-0.2092,-0.2106,-0.2107,-0.2145,-0.2137,-0.2137,-0.2139,-0.2157,-0.2158,-0.216,-0.2139,-0.2139,-0.2139,0,0,-0.181,-0.1831,-0.1851,-0.1871,-0.1902,-0.192,-0.1925,-0.1958,-0.1971,-0.2,-0.2015,-0.2037,-0.2079,-0.21,-0.2116,-0.2135,-0.2145,-0.2142,-0.2144,-0.216,-0.2162,-0.2163,-0.217,-0.2173,-0.2144,-0.2144,-0.2144,0,-0.1805,-0.1839,-0.186,-0.1883,-0.19,-0.1918,-0.194,-0.1959,-0.1996,-0.2007,-0.2008,-0.2062,-0.2084,-0.2118,-0.2123,-0.2135,-0.2142,-0.2138,-0.216,-0.2161,-0.2163,-0.217,-0.2173,-0.2144,-0.2144,-0.2144,-0.2144,0,-0.1831,-0.1855,-0.1868,-0.1904,-0.1922,-0.1944,-0.1969,-0.1986,-0.1998,-0.2016,-0.2047,-0.2073,-0.2104,-0.2113,-0.2125,-0.215,-0.215,-0.2155,-0.2156,-0.2164,-0.2171,-0.2174,-0.2143,-0.2143,-0.2143,-0.2143,0,0,-0.183,-0.1877,-0.1882,-0.1899,-0.1934,-0.1953,-0.1977,-0.2007,-0.2021,-0.2046,-0.2067,-0.2103,-0.2108,-0.2127,-0.2141,-0.2156,-0.217,-0.2159,-0.216,-0.2161,-0.22,-0.2196,-0.2199,-0.2177,-0.2177,-0.2178,-0.2197,0,-0.1844,-0.1886,-0.1906,-0.194,-0.1963,-0.1981,-0.2002,-0.2026,-0.2044,-0.2066,-0.2087,-0.2112,-0.2116,-0.2128,-0.2143,-0.2165,-0.2178,-0.2164,-0.2197,-0.2198,-0.2189,-0.2202,-0.2198,-0.2216,-0.22,-0.2201,-0.2201,0,-0.1866,-0.1891,-0.1927,-0.1961,-0.1971,-0.1989,-0.2019,-0.204,-0.2069,-0.2081,-0.2102,-0.2116,-0.2143,-0.2142,-0.2179,-0.2169,-0.2184,-0.2197,-0.2198,-0.2202,-0.22,-0.2207,-0.2221,-0.2224,-0.2206,-0.2205,-0.2205,0,-0.1862,-0.1905,-0.1932,-0.1946,-0.1986,-0.1998,-0.2015,-0.2044,-0.2061,-0.2087,-0.2099,-0.2128,-0.2144,-0.2167,-0.2189,-0.2186,-0.2225,-0.2225,-0.2236,-0.2236,-0.2243,-0.2242,-0.226,-0.2252,-0.2252,-0.2252,-0.2252,0,-0.1875,-0.1897,-0.1931,-0.1948,-0.1973,-0.1996,-0.202,-0.2039,-0.2064,-0.2086,-0.2103,-0.2123,-0.2151,-0.2175,-0.2193,-0.2221,-0.2228,-0.224,-0.2244,-0.2238,-0.2237,-0.2248,-0.2248,-0.2253,-0.2253,-0.2253,-0.2253,0,-0.1875,-0.1899,-0.193,-0.1965,-0.1975,-0.1991,-0.2022,-0.204,-0.2059,-0.2086,-0.2093,-0.2124,-0.2153,-0.2177,-0.2215,-0.2227,-0.2257,-0.2262,-0.2247,-0.225,-0.2259,-0.2258,-0.2286,-0.2291,-0.2279,-0.2279,-0.2279,0,-0.1882,-0.1899,-0.1936,-0.1952,-0.1969,-0.1994,-0.2011,-0.2036,-0.2054,-0.2088,-0.2102,-0.2132,-0.2157,-0.2203,-0.2228,-0.2258,-0.2264,-0.2272,-0.2269,-0.2263,-0.2265,-0.2264,-0.2266,-0.2272,-0.2272,-0.2272,-0.2272,0,-0.1893,-0.1904,-0.1928,-0.1958,-0.1978,-0.2003,-0.2027,-0.2039,-0.2068,-0.2088,-0.2117,-0.2137,-0.2176,-0.2206,-0.2239,-0.2258,-0.227,-0.2273,-0.2277,-0.2271,-0.2262,-0.2268,-0.2248,-0.2272,-0.2272,-0.2272,-0.2272,-0.2272,-0.1897,-0.1913,-0.1942,-0.1969,-0.199,-0.2013,-0.2032,-0.2054,-0.2079,-0.2112,-0.2125,-0.2156,-0.2185,-0.223,-0.2249,-0.2274,-0.2276,-0.2282,-0.2283,-0.2284,-0.2284,-0.2258,-0.228,-0.228,-0.228,-0.228,-0.228,0,-0.1909,-0.1928,-0.1953,-0.1987,-0.2009,-0.2019,-0.2047,-0.2065,-0.2091,-0.2117,-0.2142,-0.2177,-0.2206,-0.2235,-0.2266,-0.2281,-0.2287,-0.2288,-0.2287,-0.2292,-0.228,-0.2273,-0.2282,-0.2282,-0.2282,-0.2282,-0.2282,-0.2282,-0.1917,-0.1945,-0.196,-0.1999,-0.2019,-0.2049,-0.2065,-0.2086,-0.2107,-0.2145,-0.217,-0.2188,-0.2216,-0.2249,-0.2277,-0.2285,-0.2296,-0.2295,-0.2305,-0.2293,-0.2292,-0.2292,-0.2286,-0.2297,-0.2297,-0.2314,-0.2315,-0.2315]}]]